TimeCDT,TemperatureF,Dew PointF,Humidity,Sea Level PressureIn,VisibilityMPH,Wind Direction,Wind SpeedMPH,Gust SpeedMPH,PrecipitationIn,Events,Conditions,WindDirDegrees,DateUTC
12:53 AM,75.9,73.0,91,29.93,10.0,South,6.9,-,N/A,,Clear,180,2013-06-26 05:53:00
1:53 AM,77.0,73.0,88,29.93,10.0,SSW,5.8,-,N/A,,Clear,200,2013-06-26 06:53:00
2:53 AM,75.9,73.0,91,29.93,10.0,South,6.9,-,N/A,,Clear,170,2013-06-26 07:53:00
3:53 AM,75.0,73.0,94,29.92,10.0,South,6.9,-,N/A,,Clear,170,2013-06-26 08:53:00
4:53 AM,75.9,72.0,87,29.93,10.0,SSW,6.9,-,N/A,,Clear,200,2013-06-26 09:53:00
5:53 AM,75.9,72.0,87,29.95,10.0,SSW,9.2,-,N/A,,Clear,200,2013-06-26 10:53:00
6:53 AM,75.9,72.0,87,29.98,10.0,South,8.1,-,N/A,,Clear,190,2013-06-26 11:53:00
7:53 AM,78.1,72.0,81,29.99,10.0,SSW,12.7,-,N/A,,Clear,210,2013-06-26 12:53:00
8:53 AM,81.0,72.0,74,30.00,10.0,SW,15.0,23.0,N/A,,Clear,220,2013-06-26 13:53:00
9:53 AM,82.9,72.0,69,29.99,10.0,SW,13.8,23.0,N/A,,Clear,220,2013-06-26 14:53:00
10:53 AM,84.9,72.0,65,29.98,10.0,WSW,13.8,23.0,N/A,,Clear,240,2013-06-26 15:53:00
11:53 AM,88.0,71.1,57,29.97,10.0,SSW,16.1,23.0,N/A,,Clear,210,2013-06-26 16:53:00
12:53 PM,89.1,69.1,52,29.98,10.0,SW,11.5,19.6,N/A,,Clear,220,2013-06-26 17:53:00
1:53 PM,91.0,71.1,52,29.96,10.0,SW,11.5,19.6,N/A,,Clear,230,2013-06-26 18:53:00
2:53 PM,91.0,71.1,52,29.93,10.0,SSW,15.0,-,N/A,,Clear,200,2013-06-26 19:53:00
3:53 PM,91.0,71.1,52,29.91,10.0,WSW,10.4,20.7,N/A,,Clear,240,2013-06-26 20:53:00
4:53 PM,90.0,72.0,55,29.90,10.0,SW,10.4,-,N/A,,Clear,220,2013-06-26 21:53:00
5:53 PM,90.0,73.0,57,29.88,10.0,SSW,8.1,-,N/A,,Clear,200,2013-06-26 22:53:00
6:53 PM,89.1,72.0,57,29.88,10.0,SSW,9.2,-,N/A,,Clear,200,2013-06-26 23:53:00
7:53 PM,86.0,72.0,63,29.89,10.0,SSW,6.9,-,N/A,,Clear,200,2013-06-27 00:53:00
8:53 PM,82.9,73.0,72,29.89,10.0,SSW,5.8,-,N/A,,Clear,200,2013-06-27 01:53:00
9:53 PM,81.0,73.9,79,29.90,10.0,SSW,4.6,-,N/A,,Clear,200,2013-06-27 02:53:00
10:53 PM,81.0,73.0,77,29.91,10.0,SSW,4.6,-,N/A,,Clear,200,2013-06-27 03:53:00
11:53 PM,80.1,73.0,79,29.93,10.0,Calm,Calm,-,N/A,,Clear,0,2013-06-27 04:53:00